Marysville, OH

11:47 PM EDT on April 23, 2017 (GMT -0400)
Marysville

Weather History for KMRT - February, 2013

Change the Weather History Date:

Monday, February 18, 2013

  Actual Average (KDLZ) Record (KDLZ)
Temperature  
Mean Temperature 34 °F -  
Max Temperature 50 °F 37 °F 66 °F (2017)
Min Temperature 17 °F 19 °F -11 °F (1979)
Degree Days  
Heating Degree Days 32    
Moisture  
Dew Point 21 °F    
Average Humidity 59    
Maximum Humidity 73    
Minimum Humidity 48    
Precipitation  
Precipitation 0.00 in - - ()
Sea Level Pressure  
Sea Level Pressure 30.01 in    
Wind  
Wind Speed 9 mph (South)    
Max Wind Speed 30 mph    
Max Gust Speed 45 mph    
Visibility 10 miles    
Events      
Averages and records for this station are not official NWS values.
T = Trace of Precipitation, MM = Missing Value Source: NWS Daily Summary

Daily Weather History Graph

Daily Weather History Graph

Search for Another Location

Airport or City:

Trip Planner

Search our weather history database for the weather conditions in past years. The results will help you decide how hot, cold, wet, or windy it might be!

Date:

Astronomy

Feb. 18, 2013 Rise Set
Actual Time 7:22 AM EST 6:12 PM EST
Civil Twilight 6:54 AM EST 6:40 PM EST
Nautical Twilight 6:22 AM EST 7:12 PM EST
Astronomical Twilight 5:51 AM EST 7:43 PM EST
Moon 11:57 AM EST (2/18) 2:01 AM EST (2/18)
Length of Visible Light 11h 45m
Length of Day
10h 50m
First Quarter, 58% of the Moon is Illuminated
Feb 18
First Quarter
Feb 25
Full
Mar 4
Last Quarter
Mar 11
New
Mar 19
First Quarter

Hourly Weather History & Observations

Time (EST) Temp. Windchill Dew Point Humidity Pressure Visibility Wind Dir Wind Speed Gust Speed Precip Events Conditions
12:14 AM 18.3 °F 13.1 °F 9.5 °F 68% 30.21 in 10.0 mi South 3.5 mph - N/A   Clear
12:34 AM 17.6 °F 12.3 °F 9.9 °F 72% 30.21 in 10.0 mi South 3.5 mph - N/A   Clear
12:54 AM 18.1 °F - 9.3 °F 68% 30.21 in 10.0 mi Calm Calm - N/A   Clear
1:14 AM 18.0 °F 12.7 °F 9.5 °F 70% 30.21 in 10.0 mi South 3.5 mph - N/A   Clear
1:34 AM 18.5 °F - 9.3 °F 67% 30.21 in 10.0 mi Calm Calm - N/A   Clear
1:54 AM 18.3 °F 10.2 °F 10.2 °F 71% 30.22 in 10.0 mi South 5.8 mph - N/A   Clear
2:14 AM 17.8 °F 12.5 °F 9.3 °F 69% 30.21 in 10.0 mi South 3.5 mph - N/A   Clear
2:34 AM 17.6 °F 8.2 °F 9.5 °F 71% 30.21 in 10.0 mi South 6.9 mph - N/A   Clear
2:54 AM 18.0 °F 11.1 °F 9.7 °F 70% 30.20 in 10.0 mi South 4.6 mph - N/A   Clear
3:13 AM 18.1 °F 7.1 °F 10.4 °F 72% 30.20 in 10.0 mi South 9.2 mph - N/A   Clear
3:34 AM 17.8 °F 8.5 °F 10.4 °F 73% 30.20 in 10.0 mi South 6.9 mph - N/A   Clear
3:54 AM 18.0 °F 9.8 °F 9.5 °F 70% 30.19 in 10.0 mi South 5.8 mph - N/A   Clear
4:13 AM 18.0 °F 9.8 °F 10.0 °F 71% 30.19 in 10.0 mi South 5.8 mph - N/A   Clear
4:34 AM 18.0 °F 11.1 °F 9.5 °F 70% 30.18 in 10.0 mi South 4.6 mph - N/A   Clear
4:54 AM 18.3 °F 9.1 °F 9.5 °F 68% 30.18 in 10.0 mi South 6.9 mph - N/A   Clear
5:13 AM 18.3 °F 9.1 °F 9.5 °F 68% 30.18 in 10.0 mi South 6.9 mph - N/A   Clear
5:34 AM 18.1 °F 10.0 °F 10.4 °F 72% 30.18 in 10.0 mi South 5.8 mph - N/A   Clear
5:54 AM 18.3 °F 10.2 °F 9.5 °F 68% 30.17 in 10.0 mi South 5.8 mph - N/A   Clear
6:13 AM 18.3 °F 10.2 °F 9.5 °F 68% 30.16 in 10.0 mi South 5.8 mph - N/A   Clear
6:34 AM 18.5 °F 7.5 °F 9.5 °F 68% 30.16 in 10.0 mi South 9.2 mph - N/A   Clear
6:54 AM 18.5 °F 10.4 °F 9.5 °F 68% 30.16 in 10.0 mi South 5.8 mph - N/A   Clear
7:13 AM 18.9 °F 12.1 °F 9.5 °F 67% 30.15 in 10.0 mi SSE 4.6 mph - N/A   Clear
7:34 AM 19.2 °F 11.3 °F 9.5 °F 66% 30.15 in 10.0 mi SSE 5.8 mph - N/A   Clear
7:54 AM 20.1 °F 12.3 °F 9.9 °F 64% 30.14 in 10.0 mi South 5.8 mph - N/A   Clear
8:13 AM 21.2 °F 12.6 °F 10.4 °F 63% 30.13 in 10.0 mi South 6.9 mph - N/A   Clear
8:34 AM 22.8 °F 12.9 °F 10.8 °F 60% 30.13 in 10.0 mi South 9.2 mph - N/A   Clear
8:54 AM 23.7 °F 12.6 °F 11.5 °F 60% 30.12 in 10.0 mi South 11.5 mph 17.3 mph N/A   Clear
9:14 AM 25.3 °F 14.1 °F 12.0 °F 57% 30.11 in 10.0 mi South 12.7 mph 20.7 mph N/A   Clear
9:33 AM 27.0 °F 16.1 °F 12.7 °F 55% 30.10 in 10.0 mi South 12.7 mph 20.7 mph N/A   Clear
9:54 AM 28.4 °F 18.0 °F 13.6 °F 54% 30.09 in 10.0 mi South 12.7 mph 18.4 mph N/A   Clear
10:14 AM 29.3 °F 17.3 °F 14.4 °F 54% 30.08 in 10.0 mi South 17.3 mph 20.7 mph N/A   Clear
10:33 AM 31.3 °F 21.1 °F 16.0 °F 53% 30.07 in 10.0 mi South 13.8 mph - N/A   Clear
10:54 AM 32.7 °F 23.0 °F 17.8 °F 54% 30.06 in 10.0 mi South 13.8 mph 19.6 mph N/A   Clear
11:14 AM 34.0 °F 23.8 °F 18.3 °F 53% 30.05 in 10.0 mi South 16.1 mph 23.0 mph N/A   Clear
11:33 AM 35.6 °F 25.2 °F 19.2 °F 51% 30.04 in 10.0 mi South 18.4 mph 24.2 mph N/A   Clear
11:54 AM 36.0 °F 27.1 °F 20.3 °F 53% 30.03 in 10.0 mi South 13.8 mph 24.2 mph N/A   Clear
12:14 PM 36.7 °F 26.9 °F 21.6 °F 54% 30.02 in 10.0 mi South 17.3 mph 23.0 mph N/A   Clear
12:34 PM 39.2 °F 30.5 °F 23.4 °F 53% 30.01 in 10.0 mi South 16.1 mph 20.7 mph N/A   Clear
12:54 PM 42.4 °F 34.4 °F 26.8 °F 54% 29.99 in 10.0 mi SSW 17.3 mph 23.0 mph N/A   Clear
1:14 PM 43.9 °F 35.7 °F 27.9 °F 53% 29.98 in 10.0 mi SSW 19.6 mph 27.6 mph N/A   Clear
1:34 PM 45.0 °F 37.4 °F 28.6 °F 53% 29.97 in 10.0 mi SSW 18.4 mph 26.5 mph N/A   Clear
1:54 PM 46.4 °F 38.7 °F 29.7 °F 52% 29.96 in 10.0 mi SSW 20.7 mph 26.5 mph N/A   Clear
2:14 PM 47.1 °F - 30.6 °F 53% 29.95 in 10.0 mi SSW 16.1 mph 26.5 mph N/A   Clear
2:34 PM 47.7 °F - 29.7 °F 50% 29.94 in 10.0 mi SSW 19.6 mph 25.3 mph N/A   Clear
2:54 PM 48.6 °F - 30.9 °F 51% 29.94 in 10.0 mi SSW 19.6 mph 27.6 mph N/A   Clear
3:14 PM 48.9 °F - 31.1 °F 50% 29.94 in 10.0 mi SSW 18.4 mph 23.0 mph N/A   Clear
3:34 PM 49.6 °F - 31.6 °F 50% 29.92 in 10.0 mi SSW 13.8 mph 24.2 mph N/A   Clear
3:54 PM 50.2 °F - 31.6 °F 49% 29.92 in 10.0 mi SSW 19.6 mph 25.3 mph N/A   Clear
4:14 PM 49.5 °F - 30.2 °F 48% 29.91 in 10.0 mi SSW 19.6 mph 25.3 mph N/A   Clear
4:34 PM 49.1 °F - 30.7 °F 49% 29.90 in 10.0 mi South 12.7 mph 23.0 mph N/A   Clear
4:54 PM 46.8 °F - 29.7 °F 51% 29.89 in 10.0 mi South 10.4 mph - N/A   Clear
5:14 PM 47.5 °F - 29.5 °F 50% 29.88 in 10.0 mi South 11.5 mph 18.4 mph N/A   Clear
5:34 PM 46.2 °F 41.7 °F 29.3 °F 52% 29.87 in 10.0 mi South 9.2 mph - N/A   Clear
5:54 PM 44.8 °F 39.9 °F 29.3 °F 55% 29.87 in 10.0 mi South 9.2 mph 16.1 mph N/A   Clear
6:14 PM 44.1 °F 40.1 °F 28.9 °F 55% 29.85 in 10.0 mi South 6.9 mph - N/A   Clear
6:34 PM 44.1 °F 39.5 °F 29.3 °F 56% 29.86 in 10.0 mi South 8.1 mph - N/A   Mostly Cloudy
6:54 PM 44.6 °F 40.7 °F 29.7 °F 56% 29.85 in 10.0 mi South 6.9 mph - N/A   Overcast
7:14 PM 44.4 °F 39.5 °F 30.2 °F 57% 29.84 in 10.0 mi South 9.2 mph - N/A   Overcast
7:34 PM 44.8 °F 39.0 °F 30.6 °F 57% 29.84 in 10.0 mi South 11.5 mph - N/A   Overcast
7:53 PM 45.0 °F 38.9 °F 30.7 °F 57% 29.84 in 10.0 mi South 12.7 mph - N/A   Overcast
8:14 PM 45.1 °F 38.4 °F 31.1 °F 58% 29.83 in 10.0 mi South 15.0 mph 21.9 mph N/A   Overcast
8:34 PM 45.1 °F 38.4 °F 31.5 °F 59% 29.82 in 10.0 mi South 15.0 mph - N/A   Mostly Cloudy
8:53 PM 45.5 °F 38.6 °F 31.6 °F 58% 29.80 in 10.0 mi South 16.1 mph 20.7 mph N/A   Clear
9:14 PM 46.4 °F 40.1 °F 31.1 °F 55% 29.79 in 10.0 mi South 15.0 mph 21.9 mph N/A   Clear
9:34 PM 45.1 °F 37.9 °F 31.1 °F 58% 29.78 in 10.0 mi South 17.3 mph 21.9 mph N/A   Scattered Clouds
9:53 PM 45.0 °F 37.4 °F 31.1 °F 58% 29.77 in 10.0 mi South 18.4 mph 24.2 mph N/A   Scattered Clouds
10:14 PM 45.1 °F 37.9 °F 30.2 °F 56% 29.75 in 10.0 mi South 17.3 mph 26.5 mph N/A   Scattered Clouds
10:33 PM 45.9 °F 38.5 °F 29.5 °F 53% 29.75 in 10.0 mi SSW 18.4 mph 24.2 mph N/A   Scattered Clouds
10:54 PM 45.5 °F 36.9 °F 29.7 °F 54% 29.75 in 10.0 mi SSW 24.2 mph 31.1 mph N/A   Overcast
11:14 PM 45.5 °F 38.6 °F 30.4 °F 56% 29.73 in 10.0 mi SSW 16.1 mph 25.3 mph N/A   Overcast
11:34 PM 46.0 °F 37.4 °F 30.9 °F 56% 29.74 in 10.0 mi SW 25.3 mph 35.7 mph N/A   Overcast
11:54 PM 44.2 °F 34.2 °F 35.1 °F 70% 29.76 in 5.0 mi SW 29.9 mph 44.9 mph N/A   Overcast